User: anonymous   Login
Location: Unspecified
(0.0000°N, 0.0000°E)
Time: 23:19:54
(UTC+00:00)
Language:

OGO 1 - Orbit

View from above orbital plane
View from above orbital plane
View from above satellite
View from above satellite

Ground track
Ground track

The orbit data is extracted from the following two-line orbital elements,

1   879U 64054A   17142.99057229 +.00000363 +00000-0 +00000-0 0  9993
2   879 086.0787 331.2269 6101939 199.4603 000.1800 00.37799370017337
Epoch (UTC): 22 May 2017 23:46:25
Eccentricity: 0.6101939
inclination: 86.0787°
perigee height: 25118 km
apogee height: 123724 km
right ascension of ascending node: 331.2269°
argument of perigee: 199.4603°
revolutions per day: 0.37799370
mean anomaly at epoch: 0.1800°
orbit number at epoch: 1733

The dashed part of the orbit path shows where the satellite is in the earth's shadow,  

DLR